Regional Weather Roundup
Issued by NWS

Current Version | Previous Version | Text Only | Print | Product List | Glossary On
Versions: 1 2 3 4 5 6 7 8 9 10 11 12 13 14 15 16 17 18 19 20 21 22 23 24 25 26 27
000
ASUS42 KTBW 270717
RWRFL
FLORIDA REGIONAL WEATHER ROUNDUP
NATIONAL WEATHER SERVICE TAMPA BAY RUSKIN FL
300 AM EDT THU JUL 27 2017

NOTE: "FAIR" INDICATES FEW OR NO CLOUDS BELOW 12,000 FEET WITH NO
SIGNIFICANT WEATHER AND/OR OBSTRUCTIONS TO VISIBILITY.

FLZ001>010-012>015-112-114-115-270800-
PANHANDLE FLORIDA

CITY           SKY/WX    TMP DP  RH WIND       PRES   REMARKS
PENSACOLA      CLOUDY    77  70  79 N6        30.02F
PENSACOLA NAS  PTCLDY    75  72  90 NW3       30.02F
MILTON NAS     PTCLDY    73  72  96 NW3       30.03F
CRESTVIEW      PTCLDY    74  72  93 NW6       30.04F
DUKE FIELD     FAIR      73  72  94 CALM        N/A
VALPARAISO     PTCLDY    75  70  86 N5        30.01F
PANAMA CITY    FAIR      76  72  87 NW3       30.01F
TYNDALL AFB    CLOUDY    79  72  80 N6        30.00F
APALACHICOLA   CLOUDY    79  79 100 CALM      29.99F

STATION/POSITION SKY/WX   TEMP    WIND        PRES    WAVE   SWELL
                          AIR SEA DIR/SP/G            HT/PER HT/PER
                          (F)     (DEG/KT/KT) (MB)    (FT/S) (FT/S)
30.1N   87.6W              83 85  320/  6/  8 1016.4F   1
29.2N   88.2W              85 86  320/  8/ 10 1016.9
28.8N   86.0W              84 86  290/  6/  8 1016.2F   1/ 3
PANAMA CITY BEAC                   10/  4/  6 1016.6F
TOWER C                    81                 1016.3F
28.5N   84.5W              83 86  260/  8/ 10 1016.1R   1/ 4   2/ 4

$$
FLZ011-016>038-118-127-128-134-139-239-270800-
NORTH FLORIDA

CITY           SKY/WX    TMP DP  RH WIND       PRES   REMARKS
MARIANNA       PTCLDY    76  74  93 CALM      30.01F
TALLAHASSEE    CLOUDY    78  74  87 N5        30.01S
PERRY          MOCLDY    75  74  96 CALM      30.02R FOG
LIVE OAK       PTCLDY    75  75 100 N5        30.03S
CROSS CITY       N/A     76  74  96 N5        30.06R
LAKE CITY      CLOUDY    73  73 100 CALM      30.03R FOG
GAINESVILLE    CLOUDY    76  74  93 SE5       30.05S
WILLISTON      CLEAR     79  77  94 CALM      30.03S
PALATKA        CLOUDY    75  75 100 W3        30.03S
MAYPORT NAS    CLOUDY    79  77  94 SE5       30.00F
JACKSONVILLE   CLOUDY    77  77 100 CALM      30.00F
JAX NAS        MOCLDY    80  76  87 SE7       30.01F
JAX CECIL      CLOUDY    75  75 100 CALM      30.01S
FERNANDINA BEA MOCLDY    79  77  94 NE3       30.00S
ST AUGUSTINE   CLOUDY    78  76  93 S5        30.02F
PALM COAST     CLOUDY    79  21  11 CALM      30.03S

STATION/POSITION SKY/WX   TEMP    WIND        PRES    WAVE   SWELL
                          AIR SEA DIR/SP/G            HT/PER HT/PER
                          (F)     (DEG/KT/KT) (MB)    (FT/S) (FT/S)
SHELL POINT      NOT AVBL
KEATON BEACH               75      40/  3/  5 1016.0R
CEDAR KEY                  80      50/  6/  7 1016.9R
FERNANDINA                         20/  2/  3 1016.9F
30.7N   81.3W                 79                N/A     2/11
MAYPORT                           160/  3/  3 1016.4F
31.4N   80.9W              75 81  170/ 17/ 23 1016.9R   2/ 4   2/ 8
ST AUGUSTINE               80 75  200/  9/ 10 1016.5F

$$
FLZ040-043>046-052-053-057-058-063-144-270800-
INTERIOR CENTRAL FLORIDA

CITY           SKY/WX    TMP DP  RH WIND       PRES   REMARKS
OCALA          CLOUDY    76  74  93 CALM      30.04R FOG
THE VILLAGES     N/A     79  77  94 CALM      29.93S
LEESBURG       CLOUDY    81  76  84 S7        30.03S
SANFORD        CLOUDY    82  75  79 S6        30.03R
ORLANDO EXEC   PTCLDY    80  77  90 SE7       30.03S
ORLANDO INTL   MOCLDY    78  77  96 SE6       30.03S
KISSIMMEE      CLOUDY    79  77  94 SE5       30.03S
WINTER HAVEN   CLOUDY    78  72  81 SW8       30.03F
LAKELAND         N/A     77  72  83 S6        30.03S
BARTOW         FAIR      75  75 100 S5        30.02F
SEBRING        FAIR      78  71  81 CALM      30.03S
OKEECHOBEE     CLEAR     81  73  78 S6        30.04S

$$
FLZ041-047-054-059-064-141-147-270800-
EAST CENTRAL FLORIDA

CITY           SKY/WX    TMP DP  RH WIND       PRES   REMARKS
DAYTONA BEACH  MOCLDY    81  78  91 S5        30.03S
DELAND         MOCLDY    81  75  83 S7        30.02F
JFK SPACE CTR  MOCLDY    82  77  86 SW7       30.02R
CAPE CANAVERAL MOCLDY    82  78  89 S10       30.02R
PATRICK AFB    PTCLDY    82  77  86 S9        30.03R
MELBOURNE      PTCLDY    82  77  84 S8        30.03S
VERO BEACH     CLEAR     81  77  88 S5        30.03F
FT PIERCE      CLEAR     79  77  94 S3        30.03F
STUART         CLEAR     81  79  94 S5        30.05S

STATION/POSITION SKY/WX   TEMP    WIND        PRES    WAVE   SWELL
                          AIR SEA DIR/SP/G            HT/PER HT/PER
                          (F)     (DEG/KT/KT) (MB)    (FT/S) (FT/S)
28.5N   80.2W              84 82  170/ 12/ 14 1018.1R   2/ 3   2/ 8
28.9N   78.5W              85 85  160/ 10/ 12 1016.8S   3/ 9   2/ 9
TRIDENT PIER                      180/  9/ 12 1018.6R
28.4N   80.5W                 81                N/A     2/ 3
27.5N   80.2W                 80                N/A     1/ 7

$$
FLZ050-056-061-142-242-148-248-149-249-151-251-155-255-
160-260-270800-
WEST CENTRAL FLORIDA

CITY           SKY/WX    TMP DP  RH WIND       PRES   REMARKS
CRYSTAL RIVER  FAIR      75  73  94 CALM      30.02S
INVERNESS      FAIR      73  73 100 CALM      30.03S FOG
BROOKSVILLE    PTCLDY    75  74  96 CALM      30.03S
CLEARWATER AIR FAIR      79  77  94 CALM      30.01F
ST PETE CLEARW PTCLDY    82  76  81 S5        30.01F
TAMPA INTL     PTCLDY    83  76  79 CALM      30.02F
TAMPA EXEC     PTCLDY    79  75  89 CALM      30.02F
PLANT CITY     CLOUDY    81  77  89 S5        30.04F
MACDILL AFB    PTCLDY    80  80  98 S3        30.01F
PETER O KNIGHT MOCLDY    84  79  84 SE6       30.01F HX  96
ST PETERSBURG  PTCLDY    85  77  77 S10       30.00F HX  95
SARASOTA       CLOUDY    81  75  82 S5        30.01F
VENICE         FAIR      84  77  79 S9        30.03F

STATION/POSITION SKY/WX   TEMP    WIND        PRES    WAVE   SWELL
                          AIR SEA DIR/SP/G            HT/PER HT/PER
                          (F)     (DEG/KT/KT) (MB)    (FT/S) (FT/S)
27.3N   84.2W                 87                N/A     1/ 4
CLEARWATER BEACH                  140/  3/  5 1016.6F
MIDDLE TAMPA BAY                  170/ 10/ 12 1016.6F
VENICE                     83 88  120/  3/  4 1017.5F

$$
FLZ066-069-070-075>078-162-262-165-265-270800-
SOUTHWEST FLORIDA AND KEYS

CITY           SKY/WX    TMP DP  RH WIND       PRES   REMARKS
PUNTA GORDA    MOCLDY    78  75  90 SW5       30.04F
FT MYERS       PTCLDY    78  76  93 SW3       30.03F
SOUTHWEST INTL MOCLDY    80  75  84 CALM      30.04F
NAPLES         CLOUDY    79  75  87 N5        30.04F
MARCO ISLAND   CLOUDY    79  75  89 N3        30.04F
IMMOKALEE      MOCLDY    77  75  94 CALM      30.05S
MARATHON       PTCLDY    85  78  80 E5        30.01F HX  96
KEY WEST NAS   PTCLDY    83  78  85 E6        30.02F
KEY WEST INTL  CLEAR     84  76  76 E5        30.02F

STATION/POSITION SKY/WX   TEMP    WIND        PRES    WAVE   SWELL
                          AIR SEA DIR/SP/G            HT/PER HT/PER
                          (F)     (DEG/KT/KT) (MB)    (FT/S) (FT/S)
NAPLES                             30/  2/  4 1017.3R
DRY TORTUGAS               85     100/  4/  5 1016.6F
SAND KEY                   84                 1017.1F
MOLASSES REEF              85 86   90/ 10/ 11 1016.6F

$$
FLZ067-068-071>074-168-172>174-270800-
SOUTHEAST FLORIDA

CITY           SKY/WX    TMP DP  RH WIND       PRES   REMARKS
W PALM BEACH   PTCLDY    81  75  82 CALM      30.05S
FT LAUDER-EXEC CLEAR     82  73  74 CALM      30.03F
FT LAUDERDALE  PTCLDY    84  76  76 SE6       30.03S
POMPANO BEACH  CLEAR     85  75  72 SE6       30.03F
PEMBROKE PINES PTCLDY    82  75  79 N3        30.05S
OPA LOCKA      PTCLDY    82  78  88 CALM      30.04S
MIAMI          PTCLDY    83  73  72 CALM      30.03F
WEST KENDALL   PTCLDY    78  74  87 N3        30.03S
HOMESTEAD      PTCLDY    82  78  88 E3        30.02S

STATION/POSITION SKY/WX   TEMP    WIND        PRES    WAVE   SWELL
                          AIR SEA DIR/SP/G            HT/PER HT/PER
                          (F)     (DEG/KT/KT) (MB)    (FT/S) (FT/S)
PORT EVERGLADES            85     110/  4/  7 1017.0F
VIRGINIA KEY                       70/  5/  7 1016.4R
LAKE WORTH                        150/  6/  7   N/A
FOWEY ROCKS                85 85   90/ 12/ 13 1017.2F
SETTLEMENT POINT           82     140/  5/  7 1017.2R

$$





USA.gov is the U.S. government's official web portal to all federal, state and local government web resources and services.